STARLINK-1231 (45212 NORAD) Tracking and Keplerian Element Data

This shows tracking and keplerian element data for the satellite.

Feedback or suggestion? Click here.




ElementValue
Catalog45212
NameSTARLINK-1231
Epoch Orbit2268
Epoch Day193.91667824
Epoch Year2020
RAAN304.7195
Inclination52.9998
Eccentricity0.0001181
Argument of Perigee105.5735
Mean Anonmoly285.352
Mean Motion15.05598528
Decay Rate-0.00030507
L11 45212U 20012AL 20193.91667824 -.00030507 00000-0 -20826-2 0 9994
L22 45212 52.9998 304.7195 0001181 105.5735 285.3520 15.05598528 22685

Live tracking and technical data element details for STARLINK-1231 (NORAD 45212). STARLINK-1231 can be tracked NOW for your location showing map with azimuth and elevation plus other details from your city location.

Track the satellite on the map from your city or location and see movement details for azimuth, elevation, latitude, longitude, range, height, and movement on the map or in text.







IsCatalogInMostPopularTable: catalog: 45212, numindb: 33
Update: records affected: 1



GetName: 45212 STARLINK-1231

Hit Count: updated at: Mon, 13 Jul 2020 04:00:43 GMT